STARLINK-11542, 62988

Orbit data source: Space-Track

STARLINK-11542, 62988 is a payload satellite owned by SpaceX/Seattle (US) in LEO that was launched on Tue, 11 Feb 2025 UTC via an FALCON 9 launch vehicle from the Air Force Eastern Test Range (AFETR). Payload-class satellites include a variety of spacecraft equipped with specific instruments for various scientific and technological missions. These include communications satellites like Starlink; space stations such as the ISS; scientific satellites like the Hubble; Earth observation satellites from companies like Planet Labs, Umbra, and HawkEye 360; GPS; miniature CubeSats for education and research; and military/defense satellites.

Loading next visibility...
Identifier
62988, 2025-031H
Orbit
LEO
Country
Flag of USUS
Related business
Manufacturer
SpaceX/Seattle
Mission
Operational Commercial Communications
Bus & Motor
STARLINK V2MD, Unknown motor
Mass
960 kg wet, ~910 kg dry
Launch date (UTC)
2025-02-11 (1 year ago)
Launch vehicle
FALCON 9
Launch site
Air Force Eastern Test Range (AFETR)
Object type
Payload
Rocket body
Debris
Shape & HBR
Box + 2 Pan, 18.1 m
Radar Cross Section
36.964 m², Large (>1 m²)

Expand to show TLE details & history
Last TLE update: 22 hours ago

TLE from 22 hours ago
0 STARLINK-11542
1 62988U 25031H   26170.98378698  .00075865  00000-0  58904-3 0  9998
2 62988  42.9992 104.5922 0004523 304.0198  56.0240 15.70842095 78803
Epoch: 2026-06-19T23:36Z
TLE epoch observation values (Epoch: 2026-06-19T23:36:39.195Z)
Latitude
0.00002°
Longitude
-157.77603°
Altitude
354.559 km
Speed
7.699 km/s
True Right ascension
06h 58m 22s
True Declination
0° 00' 00"
Sunlit
Object was in daylight at epoch
Visualization orbit readout
Latitude
Unknown
Longitude
Unknown
Altitude
Unknown
Speed
Unknown
Apparent Right ascension
Unknown
Apparent Declination
Unknown
Sunlit
N/A
Visualization observer readout
Local Sidereal Time
08:33:39
Azimuth
Unknown
Elevation
Unknown
Doppler factor
Unknown
Orbital elements
Apogee altitude
361.518 km
Perigee altitude
355.424 km
Semi-major axis
6,736.608 km
Eccentricity
0.00045
Inclination
42.9992°
RAAN
104.5922°
Arg. of periapsis
304.0198°
True anomaly
56.06699°
Mean anomaly
56.024°
Eccentric anomaly
56.0455°
Mean motion
3.92538 °/min
Orbital period
91.71 mins
BSTAR
0.00058904
Loading maneuver chart data...
Computing Atmospheric mass density...
Loading historical data...
Loading historical data...
Loading historical data...
Loading historical data...
Loading historical data...
Loading historical data...
Loading historical data...

Documentation

Showing up to 5 results
|